Weather History for KOKK - February, 2013

Change the Weather History Date:

Wednesday, February 27, 2013

  Actual Average (KGUS) Record (KGUS)
Temperature  
Mean Temperature 32 °F -  
Max Temperature 35 °F 39 °F 60 °F (1998)
Min Temperature 30 °F 25 °F -1 °F (2015)
Degree Days  
Heating Degree Days 32    
Moisture  
Dew Point 31 °F    
Average Humidity 92    
Maximum Humidity 100    
Minimum Humidity 87    
Precipitation  
Precipitation 0.03 in - - ()
Sea Level Pressure  
Sea Level Pressure 29.58 in    
Wind  
Wind Speed 14 mph (WSW)    
Max Wind Speed 21 mph    
Max Gust Speed 28 mph    
Visibility 5 miles    
Events      
Averages and records for this station are not official NWS values.
T = Trace of Precipitation, MM = Missing Value Source: NWS Daily Summary

Daily Weather History Graph

Daily Weather History Graph

Search for Another Location

Airport or City:

Trip Planner

Search our weather history database for the weather conditions in past years. The results will help you decide how hot, cold, wet, or windy it might be!

Date:

Astronomy

Feb. 27, 2013 Rise Set
Actual Time 6:20 AM CST 5:33 PM CST
Civil Twilight 5:53 AM CST 6:01 PM CST
Nautical Twilight 5:21 AM CST 6:32 PM CST
Astronomical Twilight 4:50 AM CST 7:04 PM CST
Moon 7:55 PM CST (2/27) 6:55 AM CST (2/27)
Length of Visible Light 12h 07m
Length of Day
11h 13m
Waning Gibbous, 96% of the Moon is Illuminated
Feb 27
Waning Gibbous
Mar 4
Last Quarter
Mar 11
New
Mar 19
First Quarter
Mar 27
Full

Hourly Weather History & Observations

Time (CST) Temp. Windchill Dew Point Humidity Pressure Visibility Wind Dir Wind Speed Gust Speed Precip Events Conditions
12:15 AM 35.6 °F 28.0 °F 33.8 °F 93% 29.46 in 3.0 mi West 10.4 mph - 0.01 in   Overcast
12:35 AM 33.8 °F 27.0 °F 33.8 °F 100% 29.47 in 1.2 mi West 8.1 mph - 0.02 in   Overcast
12:55 AM 33.8 °F 27.0 °F 33.8 °F 100% 29.47 in 0.8 mi West 8.1 mph - 0.03 in   Overcast
1:15 AM 33.8 °F 27.7 °F 33.8 °F 100% 29.48 in 1.0 mi West 6.9 mph - N/A   Overcast
1:35 AM 33.8 °F 26.4 °F 33.8 °F 100% 29.48 in 0.8 mi West 9.2 mph - N/A   Overcast
1:55 AM 33.8 °F 26.4 °F 33.8 °F 100% 29.48 in 0.8 mi WSW 9.2 mph - N/A   Overcast
2:15 AM 33.8 °F 26.4 °F 33.8 °F 100% 29.48 in 0.8 mi WSW 9.2 mph - N/A   Overcast
2:35 AM 35.6 °F 27.5 °F 33.8 °F 93% 29.47 in 0.5 mi WSW 11.5 mph - N/A   Overcast
2:55 AM 35.6 °F 28.0 °F 35.6 °F 100% 29.47 in 0.8 mi WSW 10.4 mph - N/A   Overcast
3:15 AM 35.6 °F 27.5 °F 32.0 °F 87% 29.47 in 3.0 mi WSW 11.5 mph - N/A   Overcast
3:35 AM 33.8 °F 25.3 °F 32.0 °F 93% 29.48 in 5.0 mi WSW 11.5 mph - N/A   Overcast
3:55 AM 33.8 °F 23.2 °F 33.8 °F 100% 29.49 in 5.0 mi WSW 17.3 mph - N/A   Overcast
4:55 AM 33.8 °F 22.8 °F 33.8 °F 100% 29.52 in 6.0 mi WSW 18.4 mph 23.0 mph N/A   Overcast
5:15 AM 33.8 °F 22.8 °F 32.0 °F 93% 29.52 in 6.0 mi WSW 18.4 mph - N/A   Overcast
5:35 AM 33.8 °F 23.2 °F 32.0 °F 93% 29.52 in 10.0 mi West 17.3 mph - N/A   Overcast
5:55 AM 33.8 °F 23.9 °F 30.2 °F 87% 29.53 in 10.0 mi WSW 15.0 mph - N/A   Overcast
6:15 AM 33.8 °F 24.3 °F 30.2 °F 87% 29.54 in 9.0 mi WSW 13.8 mph - N/A   Overcast
6:35 AM 33.8 °F 23.2 °F 30.2 °F 87% 29.54 in 7.0 mi WSW 17.3 mph 25.3 mph N/A   Overcast
6:55 AM 33.8 °F 22.8 °F 32.0 °F 93% 29.56 in 5.0 mi WSW 18.4 mph - N/A   Overcast
7:15 AM 33.8 °F 22.8 °F 33.8 °F 100% 29.57 in 3.0 mi WSW 18.4 mph - N/A   Overcast
7:35 AM 33.8 °F 23.2 °F 32.0 °F 93% 29.57 in 4.0 mi WSW 17.3 mph - N/A   Overcast
7:55 AM 33.8 °F 23.2 °F 30.2 °F 87% 29.58 in 4.0 mi WSW 17.3 mph 20.7 mph N/A   Overcast
8:15 AM 33.8 °F 23.2 °F 30.2 °F 87% 29.57 in 3.0 mi WSW 17.3 mph 25.3 mph N/A   Overcast
8:35 AM 33.8 °F 22.2 °F 30.2 °F 87% 29.58 in 3.0 mi WSW 20.7 mph 25.3 mph N/A   Overcast
8:55 AM 33.8 °F 22.8 °F 30.2 °F 87% 29.59 in 4.0 mi WSW 18.4 mph 25.3 mph N/A   Overcast
9:15 AM 33.8 °F 23.2 °F 30.2 °F 87% 29.59 in 9.0 mi WSW 17.3 mph - N/A   Overcast
9:35 AM 33.8 °F 22.5 °F 30.2 °F 87% 29.59 in 10.0 mi WSW 19.6 mph 27.6 mph N/A   Overcast
9:55 AM 33.8 °F 22.5 °F 30.2 °F 87% 29.59 in 8.0 mi WSW 19.6 mph - N/A   Overcast
10:15 AM 33.8 °F 23.2 °F 30.2 °F 87% 29.59 in 10.0 mi SW 17.3 mph 23.0 mph N/A   Overcast
10:55 AM 33.8 °F 23.2 °F 32.0 °F 93% 29.58 in 10.0 mi SW 17.3 mph 23.0 mph N/A   Overcast
11:15 AM 33.8 °F 23.2 °F 32.0 °F 93% 29.58 in 10.0 mi WSW 17.3 mph - N/A   Overcast
11:35 AM 33.8 °F 23.2 °F 30.2 °F 87% 29.58 in 10.0 mi WSW 17.3 mph 25.3 mph N/A   Overcast
11:55 AM 33.8 °F 23.5 °F 30.2 °F 87% 29.58 in 10.0 mi WSW 16.1 mph - N/A   Overcast
12:15 PM 33.8 °F 22.5 °F 30.2 °F 87% 29.58 in 10.0 mi WSW 19.6 mph 24.2 mph N/A   Overcast
12:35 PM 33.8 °F 22.5 °F 30.2 °F 87% 29.58 in 10.0 mi WSW 19.6 mph 23.0 mph N/A   Overcast
12:55 PM 33.8 °F 22.2 °F 30.2 °F 87% 29.58 in 10.0 mi WSW 20.7 mph 25.3 mph N/A   Overcast
1:15 PM 33.8 °F 23.5 °F 30.2 °F 87% 29.59 in 10.0 mi WSW 16.1 mph - N/A   Overcast
1:35 PM 33.8 °F 22.8 °F 30.2 °F 87% 29.59 in 10.0 mi WSW 18.4 mph - N/A   Overcast
1:55 PM 33.8 °F 22.8 °F 30.2 °F 87% 29.59 in 9.0 mi WSW 18.4 mph - N/A   Overcast
2:15 PM 33.8 °F 22.8 °F 30.2 °F 87% 29.59 in 5.0 mi WSW 18.4 mph 23.0 mph N/A   Overcast
2:35 PM 33.8 °F 22.5 °F 30.2 °F 87% 29.60 in 7.0 mi WSW 19.6 mph - N/A   Overcast
2:55 PM 33.8 °F 23.9 °F 30.2 °F 87% 29.60 in 8.0 mi WSW 15.0 mph 21.9 mph N/A   Overcast
3:15 PM 33.8 °F 23.2 °F 30.2 °F 87% 29.61 in 4.0 mi WSW 17.3 mph - N/A   Overcast
3:35 PM 33.8 °F 23.5 °F 30.2 °F 87% 29.61 in 4.0 mi WSW 16.1 mph - N/A   Overcast
3:55 PM 33.8 °F 23.2 °F 30.2 °F 87% 29.61 in 4.0 mi WSW 17.3 mph - N/A   Overcast
4:15 PM 32.0 °F 20.8 °F 30.2 °F 93% 29.62 in 4.0 mi WSW 17.3 mph - N/A   Overcast
4:35 PM 32.0 °F 21.6 °F 30.2 °F 93% 29.62 in 4.0 mi WSW 15.0 mph - N/A   Overcast
4:55 PM 32.0 °F 20.8 °F 30.2 °F 93% 29.63 in 5.0 mi WSW 17.3 mph 23.0 mph N/A   Overcast
5:15 PM 32.0 °F 20.8 °F 28.4 °F 87% 29.63 in 5.0 mi West 17.3 mph 21.9 mph N/A   Overcast
5:35 PM 32.0 °F 20.5 °F 30.2 °F 93% 29.63 in 6.0 mi West 18.4 mph 23.0 mph N/A   Overcast
5:55 PM 32.0 °F 21.6 °F 30.2 °F 93% 29.64 in 7.0 mi West 15.0 mph - N/A   Overcast
6:15 PM 32.0 °F 21.6 °F 28.4 °F 87% 29.64 in 7.0 mi West 15.0 mph 19.6 mph N/A   Overcast
6:35 PM 32.0 °F 22.1 °F 28.4 °F 87% 29.65 in 7.0 mi West 13.8 mph 18.4 mph N/A   Overcast
6:55 PM 32.0 °F 21.2 °F 28.4 °F 87% 29.65 in 4.0 mi West 16.1 mph 23.0 mph N/A   Overcast
7:15 PM 30.2 °F 18.5 °F 28.4 °F 93% 29.65 in 4.0 mi West 17.3 mph 21.9 mph N/A   Overcast
7:35 PM 30.2 °F 19.8 °F 28.4 °F 93% 29.65 in 6.0 mi WSW 13.8 mph - N/A   Overcast
8:15 PM 30.2 °F 18.5 °F 28.4 °F 93% 29.65 in 3.0 mi West 17.3 mph 23.0 mph N/A   Overcast
8:35 PM 30.2 °F 19.3 °F 28.4 °F 93% 29.65 in 2.0 mi West 15.0 mph - N/A   Overcast
8:55 PM 30.2 °F 18.9 °F 28.4 °F 93% 29.64 in 3.0 mi WSW 16.1 mph - N/A   Overcast
9:15 PM 30.2 °F 20.2 °F 28.4 °F 93% 29.65 in 3.0 mi West 12.7 mph - N/A   Overcast
9:35 PM 30.2 °F 19.3 °F 28.4 °F 93% 29.65 in 3.0 mi West 15.0 mph - N/A   Overcast
9:55 PM 30.2 °F 19.8 °F 30.2 °F 100% 29.65 in 2.5 mi West 13.8 mph - N/A   Overcast
10:15 PM 30.2 °F 19.3 °F 30.2 °F 100% 29.64 in 5.0 mi West 15.0 mph - N/A   Overcast
10:35 PM 30.2 °F 19.3 °F 30.2 °F 100% 29.64 in 4.0 mi West 15.0 mph - N/A   Overcast
10:55 PM 30.2 °F 19.8 °F 30.2 °F 100% 29.64 in 4.0 mi West 13.8 mph - N/A   Overcast
11:15 PM 30.2 °F 18.5 °F 30.2 °F 100% 29.63 in 3.0 mi West 17.3 mph 21.9 mph N/A   Overcast
11:35 PM 32.0 °F 22.1 °F 30.2 °F 93% 29.63 in 4.0 mi West 13.8 mph - N/A   Overcast
11:55 PM 32.0 °F 22.1 °F 30.2 °F 93% 29.64 in 3.0 mi West 13.8 mph 21.9 mph N/A   Overcast